Weather History for KSPS - September, 2013

Change the Weather History Date:

Monday, September 16, 2013

  Actual Average Record
Temperature  
Mean Temperature 83 °F 76 °F  
Max Temperature 94 °F 88 °F 102 °F (1965)
Min Temperature 72 °F 63 °F 47 °F (1993)
Degree Days  
Heating Degree Days 0 0  
Month to date heating degree days 0 0  
Since 1 July heating degree days 0 0  
Cooling Degree Days 18 11  
Month to date cooling degree days 315 216  
Year to date cooling degree days 2374 2161  
Growing Degree Days 33 (Base 50)    
Moisture  
Dew Point 64 °F    
Average Humidity 55    
Maximum Humidity 74    
Minimum Humidity 36    
Precipitation  
Precipitation 0.00 in 0.10 in 2.20 in (1936)
Month to date precipitation T 1.60  
Year to date precipitation 15.48 21.33  
Sea Level Pressure  
Sea Level Pressure 30.01 in    
Wind  
Wind Speed 7 mph (ESE)    
Max Wind Speed 22 mph    
Max Gust Speed 28 mph    
Visibility 10 miles    
Events Thunderstorm    
T = Trace of Precipitation, MM = Missing Value Source: NWS Daily Summary

Daily Weather History Graph

Daily Weather History Graph

Search for Another Location

Airport or City:

Trip Planner

Search our weather history database for the weather conditions in past years. The results will help you decide how hot, cold, wet, or windy it might be!

Date:

Astronomy

Sep. 16, 2013 Rise Set
Actual Time 7:18 AM CDT 7:38 PM CDT
Civil Twilight 6:53 AM CDT 8:03 PM CDT
Nautical Twilight 6:23 AM CDT 8:32 PM CDT
Astronomical Twilight 5:53 AM CDT 9:02 PM CDT
Moon 5:43 PM CDT (9/16) 4:12 AM CDT (9/16)
Length of Visible Light 13h 10m
Length of Day
12h 20m
Waxing Gibbous, 90% of the Moon is Illuminated
Sep 16
Waxing Gibbous
Sep 19
Full
Sep 26
Last Quarter
Oct 4
New
Oct 11
First Quarter

Hourly Weather History & Observations

Time (CDT) Temp. Heat Index Dew Point Humidity Pressure Visibility Wind Dir Wind Speed Gust Speed Precip Events Conditions
12:52 AM 80.1 °F 81.7 °F 64.0 °F 58% 29.99 in 10.0 mi SSE 6.9 mph - N/A   Clear
1:52 AM 77.0 °F - 64.0 °F 64% 29.98 in 10.0 mi SSE 6.9 mph - N/A   Clear
2:52 AM 75.9 °F - 64.0 °F 67% 29.99 in 10.0 mi South 6.9 mph - N/A   Clear
3:52 AM 75.9 °F - 64.9 °F 69% 29.99 in 10.0 mi South 8.1 mph - N/A   Clear
4:52 AM 75.9 °F - 64.0 °F 67% 30.00 in 10.0 mi SE 3.5 mph - N/A   Clear
5:52 AM 73.9 °F - 64.0 °F 71% 30.01 in 9.0 mi Calm Calm - N/A   Clear
6:52 AM 73.0 °F - 64.0 °F 73% 30.02 in 9.0 mi Calm Calm - N/A   Partly Cloudy
7:52 AM 73.9 °F - 64.0 °F 71% 30.06 in 7.0 mi North 9.2 mph - N/A   Mostly Cloudy
8:52 AM 75.9 °F - 66.9 °F 74% 30.07 in 10.0 mi NNE 10.4 mph - N/A   Mostly Cloudy
9:52 AM 79.0 °F - 66.0 °F 64% 30.08 in 10.0 mi NE 16.1 mph - N/A   Mostly Cloudy
10:52 AM 84.0 °F 86.3 °F 66.0 °F 55% 30.08 in 10.0 mi NE 17.3 mph - N/A   Mostly Cloudy
11:52 AM 87.1 °F 88.9 °F 64.9 °F 48% 30.08 in 10.0 mi ENE 10.4 mph - N/A   Scattered Clouds
12:52 PM 91.0 °F 93.0 °F 64.9 °F 42% 30.05 in 10.0 mi Variable 4.6 mph - N/A   Scattered Clouds
1:52 PM 90.0 °F 91.3 °F 64.0 °F 42% 30.03 in 10.0 mi SE 6.9 mph - N/A   Mostly Cloudy
2:52 PM 91.9 °F 92.5 °F 62.1 °F 37% 30.01 in 10.0 mi SE 9.2 mph - N/A   Mostly Cloudy
3:21 PM 93.2 °F 94.9 °F 64.4 °F 38% 30.03 in 10.0 mi South 13.8 mph - N/A Thunderstorm Mostly Cloudy
3:50 PM 93.2 °F 94.1 °F 62.6 °F 36% 30.02 in 10.0 mi SSW 8.1 mph - N/A   Mostly Cloudy
3:52 PM 93.0 °F 94.2 °F 63.0 °F 37% 29.98 in 10.0 mi South 9.2 mph - N/A   Mostly Cloudy
4:08 PM 91.4 °F 92.1 °F 62.6 °F 38% 30.02 in 10.0 mi South 6.9 mph - N/A Thunderstorm Mostly Cloudy
4:32 PM 91.4 °F 92.1 °F 62.6 °F 38% 30.02 in 10.0 mi ESE 4.6 mph - N/A   Clear
4:52 PM 91.0 °F 90.9 °F 61.0 °F 36% 29.96 in 10.0 mi ESE 4.6 mph - N/A   Mostly Cloudy
5:52 PM 91.0 °F 91.5 °F 62.1 °F 38% 29.95 in 10.0 mi SE 9.2 mph - N/A   Mostly Cloudy
6:52 PM 90.0 °F 90.0 °F 61.0 °F 38% 29.96 in 10.0 mi ESE 9.2 mph - N/A   Mostly Cloudy
7:52 PM 88.0 °F 88.7 °F 63.0 °F 43% 29.99 in 10.0 mi ESE 3.5 mph - N/A   Mostly Cloudy
8:52 PM 86.0 °F 86.8 °F 63.0 °F 46% 30.00 in 10.0 mi East 5.8 mph - N/A   Mostly Cloudy
9:52 PM 84.0 °F 84.9 °F 63.0 °F 49% 30.01 in 10.0 mi ESE 4.6 mph - N/A   Mostly Cloudy
10:52 PM 82.9 °F 83.7 °F 62.1 °F 49% 30.02 in 10.0 mi NE 3.5 mph - N/A   Mostly Cloudy
11:52 PM 81.0 °F 82.5 °F 64.0 °F 56% 30.02 in 10.0 mi Calm Calm - N/A   Mostly Cloudy